Location: Bakhuizen
(52.8696°N, 5.4575°E)
Time: 23:16:42
(UTC+00:00)

NOSS 3-4 (A) - Pass Details

Date: 11 May 2021
Orbit: 872 x 1340 km, 63.4° (Epoch: 06 May)

Event Time Altitude Azimuth Distance (km) Brightness Sun altitude
Rises 21:08:54 0° 313° (NW) 3,765 8.4 -12.3°
Reaches altitude 10° 21:11:24 10° 311° (NW) 2,873 7.3 -12.6°
Maximum altitude 21:18:12 70° 230° (SW) 1,213 4.0 -13.1°
Enters shadow 21:24:06 18° 151° (SSE) 2,612 5.1 -13.6°
